STARLINK-36084

Last updated on Mon Dec 15 2025 00:02:12 GMT+0000 (Coordinated Universal Time)

1 66829U 25280J 25348.25003472 -.01789554 00000+0 -13926-1 0 9995 2 66829 69.9945 194.5295 0003711 268.8802 43.1340 15.74549777 2986
UTC large
Height (km)
Speed (km/s)
/
Latitude / Longitude
Inclination (degrees)
Orbital Period (minutes)
Azimuth
Elevation
Range (km)
Doppler Factor

Next 0 passes for location: London (51.5072 / 0.1276)

Sorry there are no passes over London.